User: anonymous   Login
Location: Fort Wayne
(41.1310°N, 85.1290°W)
Time: 00:42:54
(UTC-04:00)
Language:

Oscar 19 - Orbit

View from above orbital plane
View from above orbital plane
View from above satellite
View from above satellite

Ground track
Ground track

The orbit data is extracted from the following two-line orbital elements,

1 20442U 90005G   17232.80688778 -.00000016  00000-0  10375-4 0  9991
2 20442  98.5773 168.6724 0011077 322.0538  37.9864 14.32866798440870
Epoch (UTC): 20 August 2017 19:21:55
Eccentricity: 0.0011077
inclination: 98.5773°
perigee height: 774 km
apogee height: 790 km
right ascension of ascending node: 168.6724°
argument of perigee: 322.0538°
revolutions per day: 14.32866798
mean anomaly at epoch: 37.9864°
orbit number at epoch: 44087

The dashed part of the orbit path shows where the satellite is in the earth's shadow,  

DLR